Location: Melara
(45.0500°N, 11.1833°E)
Time: 20:08:11
(UTC+00:00)

Tiangong - Visible Passes

Search period start: 28 February 2024 00:00
Search period end: 09 March 2024 00:00
Orbit: 375 x 385 km, 41.5° (Epoch: 28 February)

Date Brightness Start Highest point End Pass type
(mag) Time Alt. Az. Time Alt. Az. Time Alt. Az.
28 Feb -0.1 18:15:05 10° SSW 18:16:57 15° SSE 18:17:05 15° SSE visible
29 Feb -0.4 18:49:23 10° SW 18:51:11 24° SSW 18:51:11 24° SSW visible
01 Mar -0.4 17:48:38 10° SSW 17:51:03 21° SSE 17:53:02 12° ESE visible
01 Mar 0.7 19:24:26 10° WSW 19:25:09 15° WSW 19:25:09 15° WSW visible
02 Mar -1.3 18:23:18 10° WSW 18:26:11 35° S 18:26:53 31° SE visible
03 Mar -0.9 18:58:22 10° WSW 19:00:37 35° SW 19:00:37 35° SW visible
04 Mar -1.4 17:57:02 10° WSW 17:59:59 40° S 18:02:10 16° ESE visible
04 Mar 0.8 19:33:34 10° WSW 19:34:16 15° WSW 19:34:16 15° WSW visible
05 Mar -1.3 18:32:04 10° WSW 18:35:01 40° S 18:35:45 33° SSE visible
06 Mar -0.3 19:07:14 10° WSW 19:09:16 24° SW 19:09:16 24° SW visible
07 Mar -1.0 18:05:33 10° WSW 18:08:25 34° SSW 18:10:40 14° SE visible
08 Mar -0.1 18:40:46 10° WSW 18:43:07 20° SSW 18:44:08 17° S visible
